Time,TemperatureF,DewpointF,PressureIn,WindDirection,WindDirectionDegrees,WindSpeedMPH,WindSpeedGustMPH,Humidity,HourlyPrecipIn,Conditions,Clouds,dailyrainin,SoftwareType,DateUTC
2014-11-21 00:01:00,-6.7,-14.8,30.08,SE,135,0.0,0.0,67,0.00,CLR,SKC,0.00,WeatherDisplay:10.37,2014-11-21 06:01:00,
2014-11-21 00:06:00,-7.2,-15.3,30.09,SE,135,0.0,0.0,67,0.00,CLR,SKC,0.00,WeatherDisplay:10.37,2014-11-21 06:06:00,
2014-11-21 00:11:00,-7.8,-15.8,30.09,SE,135,0.0,0.0,67,0.00,CLR,SKC,0.00,WeatherDisplay:10.37,2014-11-21 06:11:00,
2014-11-21 00:16:00,-8.0,-16.0,30.09,SE,135,0.0,0.0,67,0.00,CLR,SKC,0.00,WeatherDisplay:10.37,2014-11-21 06:16:00,
2014-11-21 00:21:00,-8.3,-16.4,30.09,SW,225,0.0,0.0,67,0.00,CLR,SKC,0.00,WeatherDisplay:10.37,2014-11-21 06:21:00,
2014-11-21 00:26:00,-8.7,-16.7,30.09,SE,135,0.0,0.0,67,0.00,CLR,SKC,0.00,WeatherDisplay:10.37,2014-11-21 06:26:00,
2014-11-21 00:31:00,-9.0,-17.0,30.10,SE,135,0.0,0.0,67,0.00,CLR,SKC,0.00,WeatherDisplay:10.37,2014-11-21 06:31:00,
2014-11-21 00:36:00,-9.2,-17.2,30.10,SE,135,0.0,0.0,67,0.00,CLR,SKC,0.00,WeatherDisplay:10.37,2014-11-21 06:36:00,
2014-11-21 00:41:00,-9.2,-16.9,30.09,SE,135,0.0,0.0,68,0.00,CLR,SKC,0.00,WeatherDisplay:10.37,2014-11-21 06:41:00,
2014-11-21 00:46:00,-9.2,-16.9,30.10,SE,135,0.0,0.0,68,0.00,CLR,SKC,0.00,WeatherDisplay:10.37,2014-11-21 06:46:00,
2014-11-21 00:51:00,-9.4,-17.1,30.10,SSE,158,0.0,0.0,68,0.00,CLR,SKC,0.00,WeatherDisplay:10.37,2014-11-21 06:51:00,
2014-11-21 00:56:00,-9.8,-17.7,30.11,South,180,0.0,0.0,67,0.00,CLR,SKC,0.00,WeatherDisplay:10.37,2014-11-21 06:56:00,
2014-11-21 01:01:00,-10.1,-18.1,30.11,South,180,0.0,0.0,67,0.00,CLR,SKC,0.00,WeatherDisplay:10.37,2014-11-21 07:01:00,
2014-11-21 01:06:00,-10.5,-18.4,30.11,SE,135,0.0,0.0,67,0.00,CLR,SKC,0.00,WeatherDisplay:10.37,2014-11-21 07:06:00,
2014-11-21 01:11:00,-10.5,-18.4,30.11,SE,135,0.0,0.0,67,0.00,CLR,SKC,0.00,WeatherDisplay:10.37,2014-11-21 07:11:00,
2014-11-21 01:16:00,-10.7,-18.6,30.11,SE,135,0.0,0.0,67,0.00,CLR,SKC,0.00,WeatherDisplay:10.37,2014-11-21 07:16:00,
2014-11-21 01:21:00,-11.0,-18.9,30.11,SW,225,0.0,0.0,67,0.00,CLR,SKC,0.00,WeatherDisplay:10.37,2014-11-21 07:21:00,
2014-11-21 01:26:00,-11.4,-19.3,30.11,SW,225,0.0,0.0,67,0.00,CLR,SKC,0.00,WeatherDisplay:10.37,2014-11-21 07:26:00,
2014-11-21 01:31:00,-11.6,-19.8,30.11,SE,135,0.0,0.0,66,0.00,CLR,SKC,0.00,WeatherDisplay:10.37,2014-11-21 07:31:00,
2014-11-21 01:36:00,-11.6,-19.5,30.11,SE,135,0.0,0.0,67,0.00,CLR,SKC,0.00,WeatherDisplay:10.37,2014-11-21 07:36:00,
2014-11-21 01:41:00,-11.9,-20.1,30.11,SW,225,0.0,0.0,66,0.00,CLR,SKC,0.00,WeatherDisplay:10.37,2014-11-21 07:41:00,
2014-11-21 01:46:00,-12.1,-20.3,30.11,SW,225,0.0,0.0,66,0.00,CLR,SKC,0.00,WeatherDisplay:10.37,2014-11-21 07:46:00,
2014-11-21 01:51:00,-12.5,-20.6,30.11,East,90,0.0,0.0,66,0.00,CLR,SKC,0.00,WeatherDisplay:10.37,2014-11-21 07:51:00,
2014-11-21 01:56:00,-12.3,-20.4,30.11,SE,135,0.0,0.0,66,0.00,CLR,SKC,0.00,WeatherDisplay:10.37,2014-11-21 07:56:00,
2014-11-21 02:02:00,-11.9,-19.8,30.11,SE,135,0.0,0.0,67,0.00,CLR,SKC,0.00,WeatherDisplay:10.37,2014-11-21 08:02:00,
2014-11-21 02:07:00,-12.1,-20.0,30.11,SW,225,0.0,0.0,67,0.00,CLR,SKC,0.00,WeatherDisplay:10.37,2014-11-21 08:07:00,
2014-11-21 02:12:00,-12.5,-20.6,30.11,SW,225,0.0,0.0,66,0.00,CLR,SKC,0.00,WeatherDisplay:10.37,2014-11-21 08:12:00,
2014-11-21 02:17:00,-12.8,-21.0,30.12,SE,135,0.0,0.0,66,0.00,CLR,SKC,0.00,WeatherDisplay:10.37,2014-11-21 08:17:00,
2014-11-21 02:22:00,-12.6,-20.8,30.11,SE,135,0.0,0.0,66,0.00,CLR,SKC,0.00,WeatherDisplay:10.37,2014-11-21 08:22:00,
2014-11-21 02:27:00,-12.8,-21.0,30.11,SW,225,0.0,0.0,66,0.00,CLR,SKC,0.00,WeatherDisplay:10.37,2014-11-21 08:27:00,
2014-11-21 02:32:00,-13.0,-21.1,30.12,SW,225,0.0,0.0,66,0.00,CLR,SKC,0.00,WeatherDisplay:10.37,2014-11-21 08:32:00,
2014-11-21 02:37:00,-13.2,-21.3,30.12,SE,135,0.0,0.0,66,0.00,CLR,SKC,0.00,WeatherDisplay:10.37,2014-11-21 08:37:00,
2014-11-21 02:42:00,-12.3,-20.2,30.13,SE,135,0.0,0.0,67,0.00,CLR,SKC,0.00,WeatherDisplay:10.37,2014-11-21 08:42:00,
2014-11-21 02:47:00,-11.9,-19.8,30.13,SE,135,0.0,0.0,67,0.00,CLR,SKC,0.00,WeatherDisplay:10.37,2014-11-21 08:47:00,
2014-11-21 02:52:00,-11.4,-19.3,30.12,SW,225,0.0,0.0,67,0.00,CLR,SKC,0.00,WeatherDisplay:10.37,2014-11-21 08:52:00,
2014-11-21 02:57:00,-12.1,-20.3,30.12,SE,135,0.0,0.0,66,0.00,CLR,SKC,0.00,WeatherDisplay:10.37,2014-11-21 08:57:00,
2014-11-21 03:02:00,-11.7,-19.9,30.13,East,90,0.0,0.0,66,0.00,CLR,SKC,0.00,WeatherDisplay:10.37,2014-11-21 09:02:00,
2014-11-21 03:07:00,-11.0,-18.9,30.13,SE,135,0.0,0.0,67,0.00,CLR,SKC,0.00,WeatherDisplay:10.37,2014-11-21 09:07:00,
2014-11-21 03:12:00,-10.5,-18.1,30.13,SW,225,0.0,0.0,68,0.00,CLR,SKC,0.00,WeatherDisplay:10.37,2014-11-21 09:12:00,
2014-11-21 03:17:00,-10.8,-18.8,30.12,SW,225,0.0,0.0,67,0.00,CLR,SKC,0.00,WeatherDisplay:10.37,2014-11-21 09:17:00,
2014-11-21 03:22:00,-11.0,-18.9,30.14,West,270,0.0,0.0,67,0.00,CLR,SKC,0.00,WeatherDisplay:10.37,2014-11-21 09:22:00,
2014-11-21 03:27:00,-11.0,-18.9,30.13,SE,135,0.0,0.0,67,0.00,CLR,SKC,0.00,WeatherDisplay:10.37,2014-11-21 09:27:00,
2014-11-21 03:32:00,-10.8,-18.8,30.13,East,90,0.0,0.0,67,0.00,CLR,SKC,0.00,WeatherDisplay:10.37,2014-11-21 09:32:00,
2014-11-21 03:37:00,-9.4,-17.1,30.14,East,90,0.0,0.0,68,0.00,CLR,SKC,0.00,WeatherDisplay:10.37,2014-11-21 09:37:00,
2014-11-21 03:42:00,-8.5,-15.9,30.13,SE,135,0.0,0.0,69,0.00,CLR,SKC,0.00,WeatherDisplay:10.37,2014-11-21 09:42:00,
2014-11-21 03:47:00,-8.3,-15.8,30.12,SW,225,0.0,0.0,69,0.00,CLR,SKC,0.00,WeatherDisplay:10.37,2014-11-21 09:47:00,
2014-11-21 03:52:00,-7.6,-15.1,30.13,East,90,0.0,0.0,69,0.00,CLR,SKC,0.00,WeatherDisplay:10.37,2014-11-21 09:52:00,
2014-11-21 03:57:00,-6.9,-14.4,30.12,SW,225,0.0,0.0,69,0.00,CLR,SKC,0.00,WeatherDisplay:10.37,2014-11-21 09:57:00,
2014-11-21 04:02:00,-6.5,-14.0,30.13,SE,135,0.0,0.0,69,0.00,CLR,SKC,0.00,WeatherDisplay:10.37,2014-11-21 10:02:00,
2014-11-21 04:07:00,-6.0,-13.2,30.13,SE,135,0.0,0.0,70,0.00,CLR,SKC,0.00,WeatherDisplay:10.37,2014-11-21 10:07:00,
2014-11-21 04:12:00,-5.3,-12.5,30.13,SE,135,0.0,0.0,70,0.00,CLR,SKC,0.00,WeatherDisplay:10.37,2014-11-21 10:12:00,
2014-11-21 04:17:00,-5.1,-12.4,30.13,SW,225,0.0,0.0,70,0.00,CLR,SKC,0.00,WeatherDisplay:10.37,2014-11-21 10:17:00,
2014-11-21 04:22:00,-5.3,-12.5,30.13,SW,225,0.0,0.0,70,0.00,CLR,SKC,0.00,WeatherDisplay:10.37,2014-11-21 10:22:00,
2014-11-21 04:27:00,-5.3,-12.5,30.13,North,0,0.0,0.0,70,0.00,CLR,SKC,0.00,WeatherDisplay:10.37,2014-11-21 10:27:00,
2014-11-21 04:32:00,-4.9,-12.2,30.13,SW,225,0.0,0.0,70,0.00,CLR,SKC,0.00,WeatherDisplay:10.37,2014-11-21 10:32:00,
2014-11-21 04:37:00,-4.2,-11.5,30.13,SW,225,3.5,3.5,70,0.00,CLR,SKC,0.00,WeatherDisplay:10.37,2014-11-21 10:37:00,
2014-11-21 04:42:00,-3.6,-10.7,30.12,SW,225,4.6,4.6,71,0.00,CLR,SKC,0.00,WeatherDisplay:10.37,2014-11-21 10:42:00,
2014-11-21 04:47:00,-3.5,-10.5,30.12,SW,225,3.5,3.5,71,0.00,CLR,SKC,0.00,WeatherDisplay:10.37,2014-11-21 10:47:00,
2014-11-21 04:53:00,-2.9,-10.0,30.11,South,180,1.1,0.0,71,0.00,CLR,SKC,0.00,WeatherDisplay:10.37,2014-11-21 10:53:00,
2014-11-21 04:58:00,-2.6,-9.6,30.11,SE,135,0.0,0.0,71,0.00,CLR,SKC,0.00,WeatherDisplay:10.37,2014-11-21 10:58:00,
2014-11-21 05:03:00,-2.2,-9.0,30.11,SE,135,3.5,0.0,72,0.00,CLR,SKC,0.00,WeatherDisplay:10.37,2014-11-21 11:03:00,
2014-11-21 05:08:00,-1.8,-8.7,30.11,SW,225,0.0,0.0,72,0.00,CLR,SKC,0.00,WeatherDisplay:10.37,2014-11-21 11:08:00,
2014-11-21 05:13:00,-1.7,-8.5,30.11,South,180,0.0,0.0,72,0.00,CLR,SKC,0.00,WeatherDisplay:10.37,2014-11-21 11:13:00,
2014-11-21 05:18:00,-1.5,-8.3,30.11,NE,45,0.0,0.0,72,0.00,CLR,SKC,0.00,WeatherDisplay:10.37,2014-11-21 11:18:00,
2014-11-21 05:23:00,-1.3,-8.1,30.12,SE,135,0.0,0.0,72,0.00,CLR,SKC,0.00,WeatherDisplay:10.37,2014-11-21 11:23:00,
2014-11-21 05:28:00,-1.1,-8.0,30.12,SW,225,0.0,0.0,72,0.00,CLR,SKC,0.00,WeatherDisplay:10.37,2014-11-21 11:28:00,
2014-11-21 05:33:00,-1.1,-8.0,30.12,South,180,0.0,0.0,72,0.00,CLR,SKC,0.00,WeatherDisplay:10.37,2014-11-21 11:33:00,
2014-11-21 05:38:00,-1.1,-8.0,30.11,South,180,0.0,0.0,72,0.00,CLR,SKC,0.00,WeatherDisplay:10.37,2014-11-21 11:38:00,
2014-11-21 05:43:00,-0.9,-7.8,30.11,SE,135,0.0,0.0,72,0.00,CLR,SKC,0.00,WeatherDisplay:10.37,2014-11-21 11:43:00,
2014-11-21 05:48:00,-0.9,-7.8,30.11,East,90,0.0,0.0,72,0.00,CLR,SKC,0.00,WeatherDisplay:10.37,2014-11-21 11:48:00,
2014-11-21 05:53:00,-1.3,-8.1,30.12,South,180,0.0,0.0,72,0.00,CLR,SKC,0.00,WeatherDisplay:10.37,2014-11-21 11:53:00,
2014-11-21 05:58:00,-1.7,-8.5,30.11,South,180,0.0,0.0,72,0.00,CLR,SKC,0.00,WeatherDisplay:10.37,2014-11-21 11:58:00,
2014-11-21 06:03:00,-1.8,-8.7,30.11,SW,225,0.0,0.0,72,0.00,CLR,SKC,0.00,WeatherDisplay:10.37,2014-11-21 12:03:00,
2014-11-21 06:08:00,-2.0,-8.8,30.11,SE,135,0.0,0.0,72,0.00,CLR,SKC,0.00,WeatherDisplay:10.37,2014-11-21 12:08:00,
2014-11-21 06:13:00,-1.8,-8.7,30.12,SW,225,0.0,0.0,72,0.00,CLR,SKC,0.00,WeatherDisplay:10.37,2014-11-21 12:13:00,
2014-11-21 06:18:00,-1.8,-8.7,30.12,SW,225,0.0,0.0,72,0.00,CLR,SKC,0.00,WeatherDisplay:10.37,2014-11-21 12:18:00,
2014-11-21 06:23:00,-1.7,-8.5,30.11,SW,225,0.0,0.0,72,0.00,CLR,SKC,0.00,WeatherDisplay:10.37,2014-11-21 12:23:00,
2014-11-21 06:28:00,-1.8,-8.7,30.11,West,270,0.0,0.0,72,0.00,CLR,SKC,0.00,WeatherDisplay:10.37,2014-11-21 12:28:00,
2014-11-21 06:33:00,-1.8,-8.7,30.11,SE,135,0.0,0.0,72,0.00,CLR,SKC,0.00,WeatherDisplay:10.37,2014-11-21 12:33:00,
2014-11-21 06:38:00,-2.0,-8.8,30.11,SE,135,0.0,0.0,72,0.00,CLR,SKC,0.00,WeatherDisplay:10.37,2014-11-21 12:38:00,
2014-11-21 06:43:00,-2.0,-8.8,30.10,East,90,0.0,0.0,72,0.00,CLR,SKC,0.00,WeatherDisplay:10.37,2014-11-21 12:43:00,
2014-11-21 06:48:00,-2.2,-9.3,30.11,South,180,0.0,0.0,71,0.00,CLR,SKC,0.00,WeatherDisplay:10.37,2014-11-21 12:48:00,
2014-11-21 06:53:00,-2.4,-9.5,30.11,SE,135,0.0,0.0,71,0.00,CLR,SKC,0.00,WeatherDisplay:10.37,2014-11-21 12:53:00,
2014-11-21 06:58:00,-2.4,-9.5,30.11,NE,45,0.0,0.0,71,0.00,CLR,SKC,0.00,WeatherDisplay:10.37,2014-11-21 12:58:00,
2014-11-21 07:03:00,-2.0,-8.8,30.11,East,90,0.0,0.0,72,0.00,CLR,SKC,0.00,WeatherDisplay:10.37,2014-11-21 13:03:00,
2014-11-21 07:08:00,-1.8,-8.7,30.11,East,90,0.0,0.0,72,0.00,CLR,SKC,0.00,WeatherDisplay:10.37,2014-11-21 13:08:00,
2014-11-21 07:13:00,-1.7,-8.5,30.11,East,90,0.0,0.0,72,0.00,CLR,SKC,0.00,WeatherDisplay:10.37,2014-11-21 13:13:00,
2014-11-21 07:18:00,-1.5,-8.3,30.11,South,180,0.0,0.0,72,0.00,CLR,SKC,0.00,WeatherDisplay:10.37,2014-11-21 13:18:00,
2014-11-21 07:23:00,-1.3,-8.1,30.12,SW,225,0.0,0.0,72,0.00,CLR,SKC,0.00,WeatherDisplay:10.37,2014-11-21 13:23:00,
2014-11-21 07:28:00,-1.1,-8.0,30.12,SW,225,0.0,0.0,72,0.00,CLR,SKC,0.00,WeatherDisplay:10.37,2014-11-21 13:28:00,
2014-11-21 07:33:00,-0.8,-7.6,30.12,SE,135,0.0,0.0,72,0.00,CLR,SKC,0.00,WeatherDisplay:10.37,2014-11-21 13:33:00,
2014-11-21 07:38:00,-0.6,-7.5,30.12,South,180,0.0,0.0,72,0.00,CLR,SKC,0.00,WeatherDisplay:10.37,2014-11-21 13:38:00,
2014-11-21 07:43:00,-0.4,-7.3,30.12,West,270,3.5,0.0,72,0.00,CLR,SKC,0.00,WeatherDisplay:10.37,2014-11-21 13:43:00,
2014-11-21 07:48:00,-0.4,-7.0,30.12,SW,225,2.3,2.3,73,0.00,CLR,SKC,0.00,WeatherDisplay:10.37,2014-11-21 13:48:00,
2014-11-21 07:53:00,0.0,-6.6,30.12,SE,135,3.5,3.5,73,0.00,CLR,SKC,0.00,WeatherDisplay:10.37,2014-11-21 13:53:00,
2014-11-21 07:58:00,0.3,-6.3,30.12,SW,225,4.5,4.5,73,0.00,CLR,SKC,0.00,WeatherDisplay:10.37,2014-11-21 13:58:00,
2014-11-21 08:03:00,0.7,-5.9,30.11,SW,225,3.5,3.5,73,0.00,CLR,SKC,0.00,WeatherDisplay:10.37,2014-11-21 14:03:00,
2014-11-21 08:08:00,1.0,-5.6,30.11,South,180,4.6,4.6,73,0.00,CLR,SKC,0.00,WeatherDisplay:10.37,2014-11-21 14:08:00,
2014-11-21 08:13:00,1.4,-5.3,30.11,SW,225,6.9,6.9,73,0.00,CLR,SKC,0.00,WeatherDisplay:10.37,2014-11-21 14:13:00,
2014-11-21 08:18:00,1.8,-4.9,30.11,SW,225,5.8,5.8,73,0.00,CLR,SKC,0.00,WeatherDisplay:10.37,2014-11-21 14:18:00,
2014-11-21 08:23:00,2.3,-4.4,30.11,SW,225,7.6,7.6,73,0.00,CLR,SKC,0.00,WeatherDisplay:10.37,2014-11-21 14:23:00,
2014-11-21 08:28:00,2.7,-4.0,30.11,SW,225,9.2,9.2,73,0.00,CLR,SKC,0.00,WeatherDisplay:10.37,2014-11-21 14:28:00,
2014-11-21 08:33:00,3.4,-3.3,30.11,SW,225,6.9,6.9,73,0.00,CLR,SKC,0.00,WeatherDisplay:10.37,2014-11-21 14:33:00,
2014-11-21 08:38:00,3.9,-3.1,30.11,SW,225,8.1,8.1,72,0.00,CLR,SKC,0.00,WeatherDisplay:10.37,2014-11-21 14:38:00,
2014-11-21 08:43:00,4.5,-2.6,30.11,SW,225,3.5,3.5,72,0.00,CLR,SKC,0.00,WeatherDisplay:10.37,2014-11-21 14:43:00,
2014-11-21 08:48:00,4.6,-2.4,30.11,SW,225,6.9,6.9,72,0.00,CLR,SKC,0.00,WeatherDisplay:10.37,2014-11-21 14:48:00,
2014-11-21 08:53:00,6.8,-0.9,30.10,NW,315,17.3,17.3,70,0.00,CLR,SKC,0.00,WeatherDisplay:10.37,2014-11-21 14:53:00,
2014-11-21 08:58:00,7.7,-0.7,30.10,SW,225,16.1,16.1,68,0.00,CLR,SKC,0.00,WeatherDisplay:10.37,2014-11-21 14:58:00,
2014-11-21 09:03:00,8.2,-0.8,30.10,SW,225,18.4,18.4,66,0.00,CLR,SKC,0.00,WeatherDisplay:10.37,2014-11-21 15:03:00,
2014-11-21 09:08:00,8.6,-1.1,30.10,SW,225,16.1,16.1,64,0.00,CLR,SKC,0.00,WeatherDisplay:10.37,2014-11-21 15:08:00,
2014-11-21 09:13:00,9.0,-0.8,30.10,SW,225,12.7,12.7,64,0.00,CLR,SKC,0.00,WeatherDisplay:10.37,2014-11-21 15:13:00,
2014-11-21 09:18:00,9.0,-1.1,30.10,SW,225,15.0,15.0,63,0.00,CLR,SKC,0.00,WeatherDisplay:10.37,2014-11-21 15:18:00,
2014-11-21 09:23:00,9.3,-1.1,30.09,WNW,292,17.3,17.3,62,0.00,CLR,SKC,0.00,WeatherDisplay:10.37,2014-11-21 15:23:00,
2014-11-21 09:28:00,9.5,-0.9,30.09,SW,225,17.3,17.3,62,0.00,CLR,SKC,0.00,WeatherDisplay:10.37,2014-11-21 15:28:00,
2014-11-21 09:33:00,9.9,-0.9,30.10,SW,225,15.0,15.0,61,0.00,CLR,SKC,0.00,WeatherDisplay:10.37,2014-11-21 15:33:00,
2014-11-21 09:38:00,10.0,-0.7,30.09,SW,225,12.7,12.7,61,0.00,CLR,SKC,0.00,WeatherDisplay:10.37,2014-11-21 15:38:00,
2014-11-21 09:43:00,10.4,-0.8,30.09,SW,225,13.8,13.8,60,0.00,CLR,SKC,0.00,WeatherDisplay:10.37,2014-11-21 15:43:00,
2014-11-21 09:48:00,10.4,-0.8,30.09,SW,225,13.8,13.8,60,0.00,CLR,SKC,0.00,WeatherDisplay:10.37,2014-11-21 15:48:00,
2014-11-21 09:53:00,10.8,-0.8,30.09,SW,225,15.0,15.0,59,0.00,CLR,SKC,0.00,WeatherDisplay:10.37,2014-11-21 15:53:00,
2014-11-21 09:58:00,11.1,-0.4,30.09,SW,225,17.3,17.3,59,0.00,CLR,SKC,0.00,WeatherDisplay:10.37,2014-11-21 15:58:00,
2014-11-21 10:03:00,11.3,-0.6,30.09,SW,225,15.0,15.0,58,0.00,CLR,SKC,0.00,WeatherDisplay:10.37,2014-11-21 16:03:00,
2014-11-21 10:08:00,11.7,-0.3,30.08,SW,225,12.7,12.7,58,0.00,CLR,SKC,0.00,WeatherDisplay:10.37,2014-11-21 16:08:00,
2014-11-21 10:13:00,11.8,-0.5,30.08,SW,225,20.7,20.7,57,0.00,CLR,SKC,0.00,WeatherDisplay:10.37,2014-11-21 16:13:00,
2014-11-21 10:19:00,12.2,-0.1,30.08,SW,225,16.1,16.1,57,0.00,CLR,SKC,0.00,WeatherDisplay:10.37,2014-11-21 16:19:00,
2014-11-21 10:24:00,12.6,-0.2,30.08,SW,225,12.7,12.7,56,0.00,CLR,SKC,0.00,WeatherDisplay:10.37,2014-11-21 16:24:00,
2014-11-21 10:29:00,12.9,0.2,30.07,SW,225,17.3,17.3,56,0.00,CLR,SKC,0.00,WeatherDisplay:10.37,2014-11-21 16:29:00,
2014-11-21 10:34:00,12.9,-0.2,30.07,SW,225,15.0,15.0,55,0.00,CLR,SKC,0.00,WeatherDisplay:10.37,2014-11-21 16:34:00,
2014-11-21 10:38:00,13.5,-0.1,30.07,SW,225,16.1,16.1,54,0.00,CLR,SKC,0.00,WeatherDisplay:10.37,2014-11-21 16:38:00,
2014-11-21 10:44:00,13.3,-0.7,30.07,NW,315,17.3,17.3,53,0.00,CLR,SKC,0.00,WeatherDisplay:10.37,2014-11-21 16:44:00,
2014-11-21 10:49:00,13.5,-0.1,30.07,SW,225,13.8,13.8,54,0.00,CLR,SKC,0.00,WeatherDisplay:10.37,2014-11-21 16:49:00,
2014-11-21 10:54:00,14.0,0.0,30.06,SW,225,17.3,17.3,53,0.00,CLR,SKC,0.00,WeatherDisplay:10.37,2014-11-21 16:54:00,
2014-11-21 10:59:00,14.9,0.4,30.05,SSW,202,15.0,15.0,52,0.00,CLR,SKC,0.00,WeatherDisplay:10.37,2014-11-21 16:59:00,
2014-11-21 11:04:00,14.9,0.0,30.05,West,270,18.4,18.4,51,0.00,CLR,SKC,0.00,WeatherDisplay:10.37,2014-11-21 17:04:00,
2014-11-21 11:09:00,15.4,0.1,30.05,SW,225,18.4,18.4,50,0.00,CLR,SKC,0.00,WeatherDisplay:10.37,2014-11-21 17:09:00,
2014-11-21 11:14:00,15.4,-0.3,30.04,SW,225,13.8,13.8,49,0.00,CLR,SKC,0.00,WeatherDisplay:10.37,2014-11-21 17:14:00,
2014-11-21 11:19:00,15.6,-0.6,30.04,West,270,20.7,20.7,48,0.00,CLR,SKC,0.00,WeatherDisplay:10.37,2014-11-21 17:19:00,
2014-11-21 11:24:00,15.8,-0.9,30.04,SW,225,17.3,17.3,47,0.00,CLR,SKC,0.00,WeatherDisplay:10.37,2014-11-21 17:24:00,
2014-11-21 11:29:00,15.8,-0.5,30.04,SW,225,15.0,15.0,48,0.00,CLR,SKC,0.00,WeatherDisplay:10.37,2014-11-21 17:29:00,
2014-11-21 11:34:00,15.8,-0.9,30.03,West,270,21.9,21.9,47,0.00,CLR,SKC,0.00,WeatherDisplay:10.37,2014-11-21 17:34:00,
2014-11-21 11:39:00,16.3,-0.4,30.03,SW,225,15.0,15.0,47,0.00,CLR,SKC,0.00,WeatherDisplay:10.37,2014-11-21 17:39:00,
2014-11-21 11:44:00,16.7,-0.5,30.03,SW,225,19.6,19.6,46,0.00,CLR,SKC,0.00,WeatherDisplay:10.37,2014-11-21 17:44:00,
2014-11-21 11:49:00,16.7,-0.5,30.03,SW,225,13.8,13.8,46,0.00,CLR,SKC,0.00,WeatherDisplay:10.37,2014-11-21 17:49:00,
2014-11-21 11:54:00,17.4,-0.3,30.02,SW,225,19.6,19.6,45,0.00,CLR,SKC,0.00,WeatherDisplay:10.37,2014-11-21 17:54:00,
2014-11-21 11:59:00,18.1,0.3,30.02,SW,225,15.0,15.0,45,0.00,CLR,SKC,0.00,WeatherDisplay:10.37,2014-11-21 17:59:00,